Location: Unspecified
(0.0000°N, 0.0000°E)
Time: 18:26:31
(UTC+00:00)

deb r/b Ablestar - Visible Passes

Search period start: 16 April 2026 00:00
Search period end: 26 April 2026 00:00
Orbit: 907 x 1192 km, 66.9° (Epoch: 16 April)

Date Brightness Start Highest point End Pass type
(mag) Time Alt. Az. Time Alt. Az. Time Alt. Az.
20 Apr ? 20:42:27 10° N 20:42:47 11° N 20:42:47 11° N visible
21 Apr ? 21:30:19 10° NNW 21:30:34 11° NNW 21:30:34 11° NNW visible
22 Apr ? 20:29:45 10° N 20:32:09 22° N 20:32:09 22° N visible
23 Apr ? 19:31:05 10° NNE 19:33:47 17° NE 19:33:47 17° NE visible
23 Apr ? 21:18:14 10° NW 21:20:05 18° NW 21:20:05 18° NW visible
24 Apr ? 20:17:12 10° NNW 20:21:48 41° N 20:21:48 41° N visible
25 Apr ? 19:17:51 10° NNE 19:23:34 26° ENE 19:23:34 26° ENE visible
25 Apr ? 21:06:19 10° NW 21:09:52 25° WNW 21:09:52 25° WNW visible
